Location: Prague
(50.0830°N, 14.4670°E)
Time: 00:01:28
(UTC+02:00)

N. Korean satellite - Pass Details

Date: 27 September 2021
Orbit: 450 x 494 km, 97.3° (Epoch: 28 October)

Event Time Altitude Azimuth Distance (km) Brightness Sun altitude
Rises 06:05:53 0° 17° (NNE) 2,533 10.6 -8.9°
Reaches altitude 10° 06:08:00 10° 24° (NNE) 1,658 9.7 -8.5°
Maximum altitude 06:11:27 47° 99° (E) 649 7.8 -8.0°
Drops below altitude 10° 06:14:56 10° 175° (S) 1,668 9.3 -7.4°
Sets 06:17:03 0° 181° (S) 2,551 10.2 -7.1°
